Time,TemperatureF,DewpointF,PressureIn,WindDirection,WindDirectionDegrees,WindSpeedMPH,WindSpeedGustMPH,Humidity,HourlyPrecipIn,Conditions,Clouds,dailyrainin,SoftwareType,DateUTC
2013-05-24 00:14:00,47.9,39.0,29.99,South,172,0.0,1.0,71,0.00,,,0.00,weatherlink.com 1.10,2013-05-24 07:14:00,
2013-05-24 00:29:00,47.9,39.0,29.99,SSW,207,0.0,2.0,71,0.00,,,0.00,weatherlink.com 1.10,2013-05-24 07:29:00,
2013-05-24 00:44:00,47.7,39.0,29.98,ESE,117,1.0,3.0,71,0.00,,,0.00,weatherlink.com 1.10,2013-05-24 07:44:00,
2013-05-24 00:59:00,47.6,39.0,29.98,SE,145,1.0,2.0,72,0.00,,,0.00,weatherlink.com 1.10,2013-05-24 07:59:00,
2013-05-24 01:14:00,47.6,39.0,29.98,SSE,153,0.0,2.0,71,0.00,,,0.00,weatherlink.com 1.10,2013-05-24 08:14:00,
2013-05-24 01:29:00,47.4,38.0,29.98,ESE,114,0.0,3.0,71,0.00,,,0.00,weatherlink.com 1.10,2013-05-24 08:29:00,
2013-05-24 01:44:00,47.1,38.0,29.98,SSW,195,0.0,2.0,71,0.00,,,0.00,weatherlink.com 1.10,2013-05-24 08:44:00,
2013-05-24 01:59:00,47.0,38.0,29.98,SSE,163,1.0,2.0,71,0.00,,,0.00,weatherlink.com 1.10,2013-05-24 08:59:00,
2013-05-24 02:14:00,46.8,37.0,29.98,WSW,238,1.0,4.0,70,0.00,,,0.00,weatherlink.com 1.10,2013-05-24 09:14:00,
2013-05-24 02:29:00,46.5,37.0,29.98,SSW,195,0.0,2.0,70,0.00,,,0.00,weatherlink.com 1.10,2013-05-24 09:29:00,
2013-05-24 02:44:00,46.3,37.0,29.97,SSE,152,0.0,1.0,69,0.00,,,0.00,weatherlink.com 1.10,2013-05-24 09:44:00,
2013-05-24 02:59:00,46.3,37.0,29.97,SW,221,1.0,2.0,69,0.00,,,0.00,weatherlink.com 1.10,2013-05-24 09:59:00,
2013-05-24 03:14:00,46.2,36.0,29.96,SW,225,0.0,1.0,68,0.00,,,0.00,weatherlink.com 1.10,2013-05-24 10:14:00,
2013-05-24 03:29:00,46.4,35.0,29.96,South,190,1.0,2.0,65,0.00,,,0.00,weatherlink.com 1.10,2013-05-24 10:29:00,
2013-05-24 03:44:00,46.1,35.0,29.96,WSW,240,0.0,3.0,66,0.00,,,0.00,weatherlink.com 1.10,2013-05-24 10:44:00,
2013-05-24 03:59:00,45.7,36.0,29.96,SSE,162,0.0,2.0,68,0.00,,,0.00,weatherlink.com 1.10,2013-05-24 10:59:00,
2013-05-24 04:14:00,45.6,36.0,29.96,SSW,197,0.0,3.0,68,0.00,,,0.00,weatherlink.com 1.10,2013-05-24 11:14:00,
2013-05-24 04:29:00,45.5,37.0,29.95,West,278,1.0,4.0,72,0.00,,,0.00,weatherlink.com 1.10,2013-05-24 11:29:00,
2013-05-24 04:44:00,45.0,38.0,29.95,South,172,1.0,2.0,77,0.00,,,0.00,weatherlink.com 1.10,2013-05-24 11:44:00,
2013-05-24 04:59:00,44.6,38.0,29.96,SSW,203,1.0,3.0,77,0.00,,,0.00,weatherlink.com 1.10,2013-05-24 11:59:00,
2013-05-24 05:14:00,44.1,38.0,29.95,SSW,205,0.0,2.0,79,0.00,,,0.00,weatherlink.com 1.10,2013-05-24 12:14:00,
2013-05-24 05:29:00,44.0,38.0,29.95,SSW,210,0.0,2.0,79,0.00,,,0.00,weatherlink.com 1.10,2013-05-24 12:29:00,
2013-05-24 05:44:00,43.9,39.0,29.96,ESE,120,0.0,3.0,82,0.00,,,0.00,weatherlink.com 1.10,2013-05-24 12:44:00,
2013-05-24 05:59:00,43.7,39.0,29.96,SSE,167,0.0,2.0,82,0.00,,,0.00,weatherlink.com 1.10,2013-05-24 12:59:00,
2013-05-24 06:14:00,43.6,39.0,29.96,SE,145,0.0,2.0,84,0.00,,,0.00,weatherlink.com 1.10,2013-05-24 13:14:00,
2013-05-24 06:29:00,44.5,39.0,29.97,SE,142,0.0,3.0,82,0.00,,,0.00,weatherlink.com 1.10,2013-05-24 13:29:00,
2013-05-24 06:44:00,45.7,41.0,29.97,West,276,0.0,3.0,82,0.00,,,0.00,weatherlink.com 1.10,2013-05-24 13:44:00,
2013-05-24 06:59:00,48.5,41.0,29.98,North,9,0.0,6.0,76,0.00,,,0.00,weatherlink.com 1.10,2013-05-24 13:59:00,
2013-05-24 07:15:00,50.0,42.0,29.98,NNE,30,1.0,6.0,74,0.00,,,0.00,weatherlink.com 1.10,2013-05-24 14:15:00,
2013-05-24 07:30:00,52.0,42.0,29.98,NNE,19,1.0,6.0,68,0.00,,,0.00,weatherlink.com 1.10,2013-05-24 14:30:00,
2013-05-24 07:45:00,53.3,41.0,29.99,ENE,77,2.0,4.0,63,0.00,,,0.00,weatherlink.com 1.10,2013-05-24 14:45:00,
2013-05-24 08:00:00,53.8,41.0,29.99,North,352,3.0,6.0,63,0.00,,,0.00,weatherlink.com 1.10,2013-05-24 15:00:00,
2013-05-24 08:15:00,54.6,42.0,29.99,ESE,103,1.0,5.0,63,0.00,,,0.00,weatherlink.com 1.10,2013-05-24 15:15:00,
2013-05-24 08:30:00,55.9,41.0,29.99,ENE,67,1.0,5.0,58,0.00,,,0.00,weatherlink.com 1.10,2013-05-24 15:30:00,
2013-05-24 08:45:00,57.6,42.0,30.00,NE,53,2.0,5.0,57,0.00,,,0.00,weatherlink.com 1.10,2013-05-24 15:45:00,
2013-05-24 09:00:00,58.8,41.0,30.00,NNE,16,2.0,5.0,53,0.00,,,0.00,weatherlink.com 1.10,2013-05-24 16:00:00,
2013-05-24 09:15:00,61.0,41.0,29.99,North,356,4.0,4.0,49,0.00,,,0.00,weatherlink.com 1.10,2013-05-24 16:15:00,
2013-05-24 09:30:00,61.9,41.0,29.99,ESE,112,1.0,4.0,46,0.00,,,0.00,weatherlink.com 1.10,2013-05-24 16:30:00,
2013-05-24 09:45:00,62.4,40.0,29.99,NW,325,2.0,4.0,44,0.00,,,0.00,weatherlink.com 1.10,2013-05-24 16:45:00,
2013-05-24 10:00:00,63.8,40.0,29.99,SE,146,0.0,3.0,42,0.00,,,0.00,weatherlink.com 1.10,2013-05-24 17:00:00,
2013-05-24 10:15:00,65.6,41.0,29.99,ENE,69,1.0,3.0,41,0.00,,,0.00,weatherlink.com 1.10,2013-05-24 17:15:00,
2013-05-24 10:45:00,66.6,41.0,29.99,SSE,153,3.0,5.0,39,0.00,,,0.00,weatherlink.com 1.10,2013-05-24 17:45:00,
2013-05-24 11:00:00,67.8,41.0,29.99,WNW,300,0.0,4.0,38,0.00,,,0.00,weatherlink.com 1.10,2013-05-24 18:00:00,
2013-05-24 11:15:00,68.1,39.0,29.99,West,274,1.0,4.0,35,0.00,,,0.00,weatherlink.com 1.10,2013-05-24 18:15:00,
2013-05-24 11:30:00,68.6,37.0,29.99,East,93,2.0,4.0,32,0.00,,,0.00,weatherlink.com 1.10,2013-05-24 18:30:00,
2013-05-24 11:45:00,69.5,33.0,29.99,SE,145,2.0,6.0,26,0.00,,,0.00,weatherlink.com 1.10,2013-05-24 18:45:00,
2013-05-24 12:00:00,69.7,29.0,29.99,North,4,2.0,6.0,22,0.00,,,0.00,weatherlink.com 1.10,2013-05-24 19:00:00,
2013-05-24 12:15:00,70.1,25.0,29.99,East,86,1.0,5.0,18,0.00,,,0.00,weatherlink.com 1.10,2013-05-24 19:15:00,
2013-05-24 12:30:00,70.6,31.0,29.98,ENE,70,2.0,6.0,23,0.00,,,0.00,weatherlink.com 1.10,2013-05-24 19:30:00,
2013-05-24 12:45:00,72.3,35.0,29.98,SE,134,1.0,4.0,25,0.00,,,0.00,weatherlink.com 1.10,2013-05-24 19:45:00,
2013-05-24 13:01:00,71.8,33.0,29.98,SE,124,1.0,5.0,24,0.00,,,0.00,weatherlink.com 1.10,2013-05-24 20:01:00,
2013-05-24 13:16:00,72.2,33.0,29.98,North,349,3.0,5.0,24,0.00,,,0.00,weatherlink.com 1.10,2013-05-24 20:16:00,
2013-05-24 13:31:00,72.3,35.0,29.97,SSE,156,1.0,5.0,26,0.00,,,0.00,weatherlink.com 1.10,2013-05-24 20:31:00,
2013-05-24 13:46:00,73.2,35.0,29.96,NE,36,2.0,4.0,25,0.00,,,0.00,weatherlink.com 1.10,2013-05-24 20:46:00,
2013-05-24 14:01:00,74.5,38.0,29.96,ESE,103,1.0,5.0,27,0.00,,,0.00,weatherlink.com 1.10,2013-05-24 21:01:00,
2013-05-24 14:16:00,74.6,35.0,29.96,South,190,1.0,6.0,24,0.00,,,0.00,weatherlink.com 1.10,2013-05-24 21:16:00,
2013-05-24 14:31:00,74.5,38.0,29.96,East,93,1.0,6.0,27,0.00,,,0.00,weatherlink.com 1.10,2013-05-24 21:31:00,
2013-05-24 14:46:00,74.8,39.0,29.96,ENE,65,0.0,4.0,27,0.00,,,0.00,weatherlink.com 1.10,2013-05-24 21:46:00,
2013-05-24 15:01:00,74.1,41.0,29.95,East,79,2.0,8.0,30,0.00,,,0.00,weatherlink.com 1.10,2013-05-24 22:01:00,
2013-05-24 15:16:00,73.3,41.0,29.95,ESE,120,4.0,8.0,31,0.00,,,0.00,weatherlink.com 1.10,2013-05-24 22:16:00,
2013-05-24 15:31:00,73.7,41.0,29.95,ESE,107,2.0,6.0,31,0.00,,,0.00,weatherlink.com 1.10,2013-05-24 22:31:00,
2013-05-24 15:46:00,73.9,41.0,29.95,ENE,58,3.0,6.0,31,0.00,,,0.00,weatherlink.com 1.10,2013-05-24 22:46:00,
2013-05-24 16:01:00,73.4,40.0,29.94,SSW,194,2.0,5.0,30,0.00,,,0.00,weatherlink.com 1.10,2013-05-24 23:01:00,
2013-05-24 16:16:00,73.5,40.0,29.94,South,174,1.0,8.0,30,0.00,,,0.00,weatherlink.com 1.10,2013-05-24 23:16:00,
2013-05-24 16:31:00,72.7,39.0,29.94,East,97,1.0,8.0,29,0.00,,,0.00,weatherlink.com 1.10,2013-05-24 23:31:00,
2013-05-24 16:46:00,72.9,39.0,29.94,ESE,117,3.0,6.0,29,0.00,,,0.00,weatherlink.com 1.10,2013-05-24 23:46:00,
2013-05-24 17:01:00,71.7,39.0,29.93,SE,128,3.0,7.0,30,0.00,,,0.00,weatherlink.com 1.10,2013-05-25 00:01:00,
2013-05-24 17:16:00,71.5,40.0,29.93,ESE,112,1.0,5.0,32,0.00,,,0.00,weatherlink.com 1.10,2013-05-25 00:16:00,
2013-05-24 17:32:00,71.5,41.0,29.93,NE,39,2.0,6.0,33,0.00,,,0.00,weatherlink.com 1.10,2013-05-25 00:32:00,
2013-05-24 17:46:00,70.9,40.0,29.93,NE,45,2.0,4.0,33,0.00,,,0.00,weatherlink.com 1.10,2013-05-25 00:46:00,
2013-05-24 18:01:00,70.3,40.0,29.93,NNE,27,2.0,5.0,33,0.00,,,0.00,weatherlink.com 1.10,2013-05-25 01:01:00,
2013-05-24 18:16:00,68.8,41.0,29.93,East,82,1.0,5.0,36,0.00,,,0.00,weatherlink.com 1.10,2013-05-25 01:16:00,
2013-05-24 18:31:00,67.3,40.0,29.93,North,350,3.0,4.0,37,0.00,,,0.00,weatherlink.com 1.10,2013-05-25 01:31:00,
2013-05-24 18:46:00,66.3,40.0,29.93,North,1,1.0,6.0,38,0.00,,,0.00,weatherlink.com 1.10,2013-05-25 01:46:00,
2013-05-24 19:01:00,65.3,40.0,29.93,NNE,14,2.0,4.0,39,0.00,,,0.00,weatherlink.com 1.10,2013-05-25 02:01:00,
2013-05-24 19:16:00,64.2,40.0,29.93,NNE,20,3.0,5.0,41,0.00,,,0.00,weatherlink.com 1.10,2013-05-25 02:16:00,
2013-05-24 19:31:00,63.0,41.0,29.93,West,271,0.0,4.0,44,0.00,,,0.00,weatherlink.com 1.10,2013-05-25 02:31:00,
2013-05-24 19:46:00,61.9,41.0,29.93,NE,50,1.0,4.0,46,0.00,,,0.00,weatherlink.com 1.10,2013-05-25 02:46:00,
2013-05-24 20:01:00,60.6,41.0,29.93,SSW,210,0.0,4.0,48,0.00,,,0.00,weatherlink.com 1.10,2013-05-25 03:01:00,
2013-05-24 20:16:00,59.4,41.0,29.93,NW,323,0.0,2.0,51,0.00,,,0.00,weatherlink.com 1.10,2013-05-25 03:16:00,
2013-05-24 20:31:00,57.8,41.0,29.93,WNW,288,0.0,1.0,53,0.00,,,0.00,weatherlink.com 1.10,2013-05-25 03:31:00,
2013-05-24 21:01:00,55.2,40.0,29.94,West,277,0.0,1.0,58,0.00,,,0.00,weatherlink.com 1.10,2013-05-25 04:01:00,
2013-05-24 21:16:00,54.6,41.0,29.94,West,276,0.0,0.0,60,0.00,,,0.00,weatherlink.com 1.10,2013-05-25 04:16:00,
2013-05-24 21:31:00,54.3,41.0,29.94,West,280,0.0,0.0,61,0.00,,,0.00,weatherlink.com 1.10,2013-05-25 04:31:00,
2013-05-24 21:46:00,53.9,41.0,29.94,WSW,237,0.0,1.0,61,0.00,,,0.00,weatherlink.com 1.10,2013-05-25 04:46:00,
2013-05-24 22:01:00,53.8,40.0,29.95,ESE,105,2.0,2.0,61,0.00,,,0.00,weatherlink.com 1.10,2013-05-25 05:01:00,
2013-05-24 22:16:00,53.6,41.0,29.95,South,188,0.0,3.0,62,0.00,,,0.00,weatherlink.com 1.10,2013-05-25 05:16:00,
2013-05-24 22:31:00,53.4,40.0,29.95,South,188,1.0,3.0,62,0.00,,,0.00,weatherlink.com 1.10,2013-05-25 05:31:00,
2013-05-24 23:03:00,52.1,40.0,29.95,South,190,0.0,1.0,64,0.00,,,0.00,weatherlink.com 1.10,2013-05-25 06:03:00,
2013-05-24 23:17:00,51.5,40.0,29.94,SSW,195,0.0,2.0,66,0.00,,,0.00,weatherlink.com 1.10,2013-05-25 06:17:00,
2013-05-24 23:32:00,50.9,41.0,29.94,SSE,168,1.0,2.0,68,0.00,,,0.00,weatherlink.com 1.10,2013-05-25 06:32:00,
2013-05-24 23:47:00,51.1,41.0,29.94,SW,219,1.0,3.0,68,0.00,,,0.00,weatherlink.com 1.10,2013-05-25 06:47:00,